Theta_e
291 287 285 288 286 284 284 282 282 286 288 287 286 287 290 292 290 290 291 291 291 292 294 295 295 300 309 313 316 320 322 324 326 327 327 327 326 327 326 326 328 329 325 325
288 284 288 290 288 288 285 284 283 286 288 288 285 287 290 291 291 291 291 290 290 290 291 293 294 293 299 307 314 317 322 323 326 327 327 325 327 327 326 325 326 329 329 328
285 287 290 289 286 287 284 283 283 283 285 284 282 282 283 286 287 289 290 290 289 290 290 291 292 292 292 296 305 314 318 322 325 327 320 315 316 315 317 317 322 325 329 329
287 289 289 287 285 286 283 287 286 286 283 280 283 277 282 285 287 288 288 288 290 292 293 294 293 292 292 293 295 306 312 316 321 322 321 321 324 323 323 322 317 317 321 327
286 288 288 287 287 288 285 288 287 284 282 281 281 279 282 282 284 287 291 291 291 291 292 293 294 296 296 295 293 298 306 312 316 321 322 320 318 318 314 312 312 312 313 319
288 291 289 288 289 288 290 286 285 283 281 276 280 279 280 282 283 285 287 288 291 292 293 294 294 295 296 296 298 301 305 308 313 316 316 316 317 314 309 307 308 309 308 310
285 287 290 291 288 289 285 282 277 275 275 275 279 278 281 285 287 286 288 289 292 292 292 294 294 295 295 296 296 300 304 306 308 311 312 312 313 312 310 309 308 306 305 305
282 281 288 291 289 287 284 283 278 273 272 275 280 277 282 286 288 288 290 291 292 293 293 294 295 295 294 295 296 297 299 300 303 305 307 307 308 309 308 308 306 306 306 306
282 281 288 289 289 291 285 281 284 277 267 273 277 280 284 286 289 290 291 292 292 292 293 294 294 294 295 295 295 295 296 297 297 298 299 300 301 302 304 304 303 304 303 303
287 281 286 287 289 289 286 288 281 278 269 269 274 276 279 283 287 288 291 291 292 292 293 293 293 294 294 294 294 295 296 296 296 296 296 297 298 298 299 300 300 300 301 300
287 286 283 287 285 284 285 283 283 282 279 273 270 276 282 287 288 288 289 290 292 292 293 293 294 294 294 294 294 294 294 294 295 295 295 295 296 296 297 297 298 298 298 298
288 286 281 283 286 286 285 284 283 278 276 276 277 277 286 289 289 290 290 291 291 292 292 293 294 294 294 294 294 294 295 295 294 294 294 295 295 295 295 296 297 297 297 297
289 283 275 280 284 284 282 284 283 283 282 277 275 277 287 286 288 289 290 291 292 291 293 293 293 293 293 293 294 293 294 293 293 293 293 293 294 293 293 294 294 295 295 294
293 284 281 279 280 284 282 284 284 285 279 280 280 281 285 287 288 289 289 290 290 292 293 292 292 292 292 292 293 293 293 293 291 291 291 291 291 291 291 291 292 291 292 291
290 282 284 285 285 285 284 284 283 283 285 282 283 283 289 289 287 290 290 291 292 292 291 291 291 291 291 291 291 291 291 291 290 289 289 289 289 289 288 288 288 288 288 289
291 283 284 282 286 286 285 285 285 285 285 283 284 284 289 291 291 290 291 291 290 290 290 290 290 291 291 291 291 291 290 289 287 287 286 287 286 285 285 285 285 285 286 286
290 285 280 276 284 284 280 284 285 285 286 286 284 288 290 289 290 291 289 289 289 289 289 289 289 290 290 289 290 289 288 287 285 285 284 283 284 283 284 284 284 284 284 285
289 286 285 279 284 278 284 284 288 288 288 290 289 289 290 290 290 290 289 288 288 289 289 289 289 289 289 289 288 288 286 286 285 285 283 281 282 282 281 281 281 283 283 283
293 288 281 279 279 281 282 283 285 286 285 290 290 288 287 287 288 286 288 289 288 287 289 289 288 288 288 287 287 285 285 285 285 285 284 284 282 281 281 281 281 280 280 279
290 290 285 277 276 271 280 283 287 285 278 285 290 286 285 285 281 284 289 286 286 286 288 288 286 286 286 286 284 284 284 282 283 284 283 282 280 279 279 280 280 277 275 279
284 284 280 279 276 276 281 282 283 276 279 280 285 285 284 284 284 285 285 284 285 285 285 284 284 285 285 284 283 282 282 281 282 280 279 279 278 277 277 277 276 276 275 276
283 281 281 278 276 275 282 281 280 281 282 283 283 284 284 285 285 283 283 283 284 284 285 284 284 283 283 282 279 279 279 281 277 277 276 277 275 278 278 272 273 271 270 271
277 281 277 280 280 281 281 282 283 284 283 283 284 283 284 283 282 282 282 283 283 283 284 283 280 280 281 277 275 277 279 276 275 274 275 275 276 279 274 270 272 271 267 270
275 275 276 277 275 278 282 284 284 285 284 284 283 283 283 282 281 280 281 281 282 280 278 277 276 277 277 277 275 275 276 275 275 279 278 276 277 279 277 274 273 272 272 272
276 277 271 270 274 277 279 281 284 283 283 283 283 283 282 281 280 280 280 279 279 279 277 275 275 276 277 276 276 275 274 271 272 275 279 280 280 279 277 276 276 275 275 276
278 276 276 274 280 282 283 284 282 281 282 282 282 281 281 280 281 280 278 278 278 276 274 273 272 271 272 271 274 274 267 266 267 273 277 279 280 280 280 277 276 281 285 285
Wind_Speed
3 6 7 10 5 4 7 5 3 1 1 2 5 7 12 9 5 10 11 9 9 12 8 9 9 9 9 8 9 12 11 12 9 8 8 8 8 7 6 6 9 10 8 11
6 5 5 8 6 6 5 5 2 1 2 2 4 10 12 10 8 7 7 9 9 7 7 10 8 7 9 10 12 10 13 12 12 10 8 5 7 7 7 6 7 11 11 11
7 3 9 7 4 6 3 6 4 3 2 3 5 9 7 5 3 5 5 6 5 8 9 8 7 5 4 8 10 12 14 12 12 12 4 3 3 2 3 3 6 9 10 11
4 2 8 7 4 5 5 6 5 6 4 3 3 6 7 5 10 5 8 7 7 8 6 6 6 4 3 7 6 8 7 8 8 9 8 10 10 11 9 6 4 5 9 11
6 8 8 5 5 6 3 4 5 4 5 3 3 2 9 4 5 5 7 8 7 6 6 8 8 6 5 6 2 5 6 7 7 9 9 7 7 4 1 3 5 6 6 9
3 0 3 4 4 2 10 7 8 5 4 1 3 5 7 3 2 3 3 7 7 8 8 7 5 6 6 6 6 3 2 2 5 7 7 8 8 6 4 3 4 4 3 4
2 1 1 4 8 5 4 6 3 3 3 6 2 3 10 4 5 3 5 6 6 6 7 7 8 8 8 8 8 6 4 3 2 4 4 5 5 5 7 6 4 4 3 3
7 3 8 5 6 10 6 7 7 8 5 3 3 6 7 2 6 1 3 3 6 8 6 8 8 7 8 8 8 7 7 5 2 0 3 3 4 3 4 5 4 4 5 5
6 3 1 2 3 6 6 4 5 9 3 4 3 7 4 5 6 5 7 7 7 7 7 7 8 8 8 7 8 7 7 7 6 4 2 3 4 5 5 6 4 4 5 4
8 5 2 1 2 4 4 8 4 4 4 3 3 5 6 1 3 4 7 7 6 6 8 8 8 8 7 7 6 8 8 8 6 5 5 4 5 4 5 5 6 6 5 4
6 5 1 3 5 8 3 3 5 6 4 7 3 7 6 8 6 7 6 3 6 6 6 6 7 7 7 7 8 8 9 9 9 7 6 6 6 5 4 4 6 6 5 6
5 6 5 6 2 1 1 6 6 7 5 1 4 7 3 8 7 6 5 5 5 6 5 6 7 8 9 9 9 9 9 9 7 7 7 7 6 6 5 5 7 5 6 6
8 2 4 5 3 3 4 4 4 6 4 8 8 7 4 3 5 2 4 5 6 6 7 7 7 8 7 7 7 7 7 7 6 7 8 8 9 8 8 6 6 6 6 6
7 4 9 12 4 8 6 6 6 7 4 5 7 8 7 8 7 3 2 4 3 6 7 6 7 7 6 6 6 7 7 7 8 8 8 9 10 10 10 10 10 10 9 8
6 6 4 3 3 5 5 9 10 10 13 9 7 11 18 17 10 4 4 5 6 6 7 7 6 6 5 6 6 6 5 6 6 7 7 7 7 7 8 8 9 9 8 8
2 3 4 2 3 3 3 6 8 6 4 2 3 6 5 5 6 6 6 6 5 5 5 5 6 7 6 6 6 5 5 5 4 5 5 5 5 6 6 7 8 8 8 8
4 6 3 4 4 4 5 12 9 6 4 9 11 8 7 4 6 7 7 7 6 5 4 5 5 4 5 5 5 6 6 5 5 5 5 5 5 5 6 6 7 7 7 6
6 5 2 4 5 8 5 3 6 9 6 8 4 5 7 6 5 5 5 7 6 4 4 3 4 5 5 5 5 7 6 7 7 7 5 3 5 7 6 6 7 7 6 7
8 5 4 5 3 4 4 5 8 9 10 13 9 8 6 6 5 1 4 4 4 2 1 0 2 3 6 7 7 7 9 8 9 10 11 10 10 11 9 9 8 6 6 5
6 5 6 4 6 9 5 3 5 5 5 4 11 10 9 7 5 4 6 2 3 2 1 1 3 3 5 6 6 7 8 8 9 9 11 9 9 9 11 10 10 4 4 8
4 4 7 4 3 7 6 5 4 8 8 2 6 8 8 5 3 5 4 2 1 1 3 2 2 4 6 6 6 7 7 8 7 7 9 9 8 9 8 9 5 6 8 8
8 6 3 3 3 8 7 3 10 6 3 5 6 5 7 6 5 4 3 3 4 5 5 2 3 5 6 4 1 5 7 7 6 8 9 9 8 7 7 7 7 6 6 6
3 6 7 8 6 2 2 2 3 4 7 5 7 6 7 6 5 4 3 4 5 6 5 3 3 6 7 4 2 5 6 5 6 7 9 8 8 8 5 6 7 5 4 4
3 1 4 5 3 1 3 3 4 4 7 7 7 6 5 3 1 2 3 4 4 4 4 2 3 5 7 6 4 7 8 6 7 11 12 10 10 13 9 5 4 4 5 5
5 6 6 2 2 1 3 2 6 6 7 7 5 5 4 3 3 4 3 3 3 3 2 1 3 6 9 8 9 7 5 5 8 9 10 12 9 9 10 8 6 6 5 6
6 8 6 6 10 6 8 8 6 7 6 7 6 5 4 3 3 2 2 3 1 2 3 4 4 6 7 7 11 10 5 4 6 10 8 8 8 7 7 7 8 11 13 13
Wind_Direction
10 97 187 190 152 117 127 120 158 202 95 175 233 266 280 281 254 268 272 269 257 254 285 251 236 216 202 201 197 194 188 194 181 187 195 209 212 210 205 197 192 199 204 196
52 206 194 120 125 113 120 123 173 50 57 127 358 280 262 270 255 239 259 279 278 279 288 282 262 217 209 213 210 202 206 189 194 198 202 195 198 219 218 205 201 201 198 196
146 207 138 118 129 126 122 152 180 146 73 60 345 301 323 308 290 308 290 266 289 284 300 308 308 263 229 222 208 206 208 201 199 202 127 99 81 86 140 190 205 209 204 201
147 114 138 120 166 133 169 189 141 126 90 220 26 280 307 317 308 330 339 2 8 13 17 10 4 11 311 253 221 218 198 193 198 182 186 200 214 223 225 216 212 198 207 217
205 165 142 131 184 159 177 112 112 87 94 77 323 78 272 342 331 357 21 19 16 9 15 12 17 28 15 7 308 229 199 184 171 181 190 196 209 221 160 174 192 206 202 217
131 222 103 139 72 79 151 76 48 58 85 357 260 147 282 228 191 306 353 350 356 360 5 16 16 27 27 26 38 37 154 155 165 176 180 186 201 202 184 200 227 222 216 220
42 80 47 127 85 42 83 89 19 0 16 218 349 91 244 255 261 250 329 356 359 3 19 29 32 31 28 32 33 48 83 103 161 183 195 206 223 202 215 213 211 204 225 227
145 209 170 185 158 161 187 158 157 192 188 231 72 233 252 190 322 328 65 58 31 30 30 39 33 43 30 31 41 44 52 53 45 287 254 255 242 236 231 221 216 221 216 221
134 219 18 58 128 144 184 190 158 106 22 57 219 285 316 19 42 65 63 67 53 43 37 37 31 25 43 29 37 42 47 47 43 19 344 297 287 277 271 265 242 242 240 235
198 114 2 28 99 56 155 163 87 6 129 231 285 277 229 136 107 53 67 78 74 54 41 34 31 19 26 25 17 29 31 30 14 18 13 349 325 304 293 289 273 264 268 248
144 110 340 119 219 162 134 180 58 112 134 161 165 255 219 152 164 120 95 106 109 88 55 44 34 25 31 36 33 30 28 27 18 8 354 356 347 332 320 297 284 268 263 248
189 112 145 202 283 275 177 177 148 133 218 249 140 263 204 171 165 124 83 88 75 90 67 56 47 37 29 25 25 26 22 25 14 356 2 5 2 358 349 320 294 289 274 267
186 195 83 9 349 352 198 190 127 115 91 194 137 254 74 125 113 81 92 9 17 50 49 48 40 38 33 26 22 21 19 13 2 0 3 0 4 359 352 325 318 309 294 278
107 138 173 201 182 133 179 182 177 148 159 174 218 142 218 220 192 198 221 270 70 56 52 49 42 35 31 23 13 6 5 4 359 2 3 357 356 347 336 334 339 339 333 313
135 164 131 31 120 126 157 170 176 190 205 186 190 179 201 207 181 180 146 120 107 68 46 35 29 21 24 17 5 351 344 341 340 346 348 343 329 314 330 329 328 323 321 312
37 150 119 92 74 77 158 199 193 196 143 136 156 237 195 152 147 140 157 141 111 86 62 39 27 15 8 0 347 327 323 318 324 330 309 289 305 322 308 303 305 304 302 302
109 131 111 203 120 103 307 208 179 180 181 163 212 208 156 161 156 144 147 144 144 123 86 46 24 357 335 339 319 331 317 302 303 292 287 290 305 307 311 307 308 306 299 293
128 103 65 136 124 204 259 47 174 196 182 211 116 139 149 146 117 110 118 128 110 95 69 36 6 341 334 332 345 330 336 340 343 335 329 311 323 318 306 307 295 300 300 305
166 128 135 157 194 316 236 194 151 167 246 207 203 139 142 112 85 68 117 88 96 77 59 119 337 311 328 345 346 346 340 342 343 339 338 339 337 327 324 316 309 293 286 286
172 134 157 155 170 198 224 197 150 117 283 167 167 165 149 139 152 224 174 111 100 46 245 337 344 320 326 338 352 344 329 331 325 329 324 321 319 317 316 314 315 296 289 296
160 138 157 164 190 286 231 169 156 111 232 151 119 134 142 154 175 128 103 131 212 291 337 329 343 317 302 323 344 323 316 305 296 312 312 311 308 301 294 303 302 303 309 310
173 149 173 117 109 270 160 77 158 186 55 117 109 120 128 124 120 87 31 316 317 314 314 300 299 298 299 308 320 289 289 290 308 306 302 301 298 296 293 291 292 295 296 292
216 182 173 177 197 259 178 113 128 130 134 141 118 121 123 134 157 165 222 245 268 277 283 277 268 300 310 319 242 285 278 310 306 301 298 298 298 297 271 284 291 298 289 285
275 225 142 91 297 170 110 61 86 117 118 127 129 130 133 144 126 276 276 273 264 266 271 274 322 305 299 301 267 242 284 296 295 297 301 305 307 308 298 275 262 271 277 278
190 129 151 290 317 96 335 253 151 130 123 121 121 133 151 158 250 233 242 248 247 250 295 292 276 280 284 294 293 291 280 284 291 283 286 290 293 293 299 282 273 266 252 247
187 164 165 211 176 149 183 180 165 153 163 159 158 159 151 190 242 249 241 211 213 335 307 299 270 272 287 288 295 302 252 247 275 289 286 283 289 282 278 283 294 285 275 282